Wind_Speed
8 6 5 3 2 1 1 4 5 6 7 7 7 8 10 11 12 12 11 11 10 10 9 9 9 9 9 9 9 8 8 9 9 9 9 10 10 10 11 11 10 10 10 10
10 7 6 4 3 3 5 6 7 6 6 6 7 8 10 11 12 12 11 10 10 10 9 9 8 9 9 9 10 9 9 9 9 9 9 10 11 11 11 11 10 10 10 11
10 7 7 6 6 7 8 7 7 7 8 7 9 10 10 11 11 12 12 10 9 10 9 8 8 9 9 10 9 9 9 10 10 10 11 11 11 11 11 12 12 12 12 12
11 10 9 8 9 8 9 7 6 8 9 8 9 12 10 10 12 11 12 10 9 9 10 10 9 10 10 10 9 9 10 10 11 11 12 11 11 12 13 13 12 12 12 12
12 11 11 11 11 11 9 8 8 9 10 7 7 11 10 10 11 11 12 12 9 10 11 11 11 11 12 11 10 9 10 11 11 12 12 12 12 13 14 13 13 13 13 13
14 14 14 14 12 12 10 9 9 10 11 9 8 12 11 11 10 11 12 12 11 10 12 12 11 11 12 11 11 11 11 12 12 12 12 13 13 13 14 13 13 13 14 14
14 15 16 15 13 12 10 9 12 11 10 9 9 12 11 10 12 12 12 12 12 11 11 12 12 12 11 11 11 12 12 12 13 13 13 13 14 14 14 14 14 14 14 14
15 15 13 13 12 12 11 12 13 13 11 10 11 14 13 9 11 12 13 12 13 12 11 11 11 12 12 12 12 12 12 13 13 13 13 14 14 15 15 14 15 15 15 15
16 15 13 15 15 14 14 13 12 14 13 13 13 14 14 13 12 12 11 10 12 12 12 11 12 12 12 12 12 12 12 13 13 14 14 14 15 15 15 15 15 15 15 15
18 17 15 16 16 15 14 13 13 12 14 15 14 13 13 14 14 13 12 10 11 13 13 12 12 12 13 13 13 12 12 13 14 14 15 15 15 16 16 15 16 16 16 16
20 19 16 16 16 15 14 14 14 14 14 15 16 15 15 15 16 15 13 11 12 13 13 14 13 13 13 13 13 13 14 14 15 16 16 16 16 17 16 15 15 16 16 16
22 21 18 18 18 18 16 16 15 16 17 16 18 18 15 16 16 16 15 12 13 14 13 13 14 15 14 14 13 14 15 15 16 16 17 17 17 17 17 16 16 16 16 17
23 23 22 20 19 18 19 17 17 16 17 19 19 20 18 18 16 17 17 15 15 16 15 14 15 16 16 15 15 15 16 17 17 17 17 17 18 18 18 18 17 17 18 18
25 25 24 22 20 19 18 17 17 17 18 19 19 20 20 18 18 18 19 18 17 17 17 16 16 16 16 16 16 17 17 17 18 18 18 19 19 20 20 19 19 19 19 19
25 24 24 23 21 18 17 18 18 19 19 19 18 20 22 22 20 18 20 20 19 18 18 18 17 17 18 17 17 18 18 17 18 19 19 20 20 20 20 20 20 20 20 21
27 26 25 25 23 21 20 20 20 20 20 20 20 20 22 23 22 21 22 22 20 20 20 19 19 19 19 19 19 19 18 18 18 19 20 20 21 20 21 21 21 21 21 21
27 27 26 25 22 23 23 21 20 20 20 21 22 23 24 24 25 23 24 23 22 21 21 21 21 20 20 20 20 19 19 19 20 20 21 21 21 21 22 22 22 22 22 23
27 27 26 25 24 26 25 22 22 21 20 20 22 23 24 23 24 23 22 22 22 22 21 21 22 21 21 21 21 20 20 20 21 21 22 22 22 22 22 23 23 23 23 23
26 27 26 25 25 26 24 23 22 22 22 23 23 24 24 25 25 24 23 22 22 22 22 23 23 22 22 22 22 22 22 22 23 22 22 23 23 23 23 23 24 24 24 25
25 26 27 26 26 24 22 23 23 23 25 26 25 25 25 26 26 26 25 23 22 23 23 24 23 23 24 24 23 24 24 25 25 25 25 25 25 25 24 24 25 25 26 26
24 26 27 26 26 24 22 23 24 24 27 28 27 25 25 27 27 27 27 25 24 24 24 24 24 24 24 24 24 25 25 25 26 26 26 25 25 26 26 26 27 27 27 28
25 26 27 26 26 26 26 26 27 28 29 29 28 27 27 28 28 28 28 27 26 26 26 25 25 25 25 25 25 25 26 26 26 26 26 26 27 27 27 28 28 28 29 29
26 27 27 27 27 28 30 30 30 30 30 30 30 29 29 29 29 29 28 28 27 27 26 25 26 25 25 25 25 26 26 26 27 27 27 27 27 28 29 30 29 29 29 28
27 28 29 29 29 29 30 31 31 31 31 31 31 30 30 29 29 28 28 27 27 27 26 25 26 26 26 26 26 27 27 27 27 27 27 27 28 29 29 30 30 29 29 29
28 28 30 31 30 31 31 31 30 31 32 31 30 30 29 29 28 28 27 27 27 26 26 26 26 26 27 28 27 27 27 28 28 28 27 28 28 28 28 29 29 30 30 30
29 30 31 32 33 33 33 32 31 30 30 30 31 31 29 28 27 27 26 26 26 26 27 27 27 28 28 28 28 28 28 28 28 28 28 28 28 28 28 29 29 29 30 30
Wind_Direction
200 205 224 261 260 359 344 285 307 327 334 333 337 339 340 343 342 340 342 340 341 347 352 349 349 351 351 352 350 348 347 347 346 344 342 343 343 340 337 333 329 326 323 320
216 213 210 210 226 255 261 279 301 302 319 319 315 312 327 337 334 334 338 336 335 339 343 346 347 347 348 348 350 350 348 344 344 343 342 344 344 344 343 341 334 329 326 323
221 222 219 209 235 249 254 265 284 299 299 302 305 309 315 325 330 332 331 330 329 337 339 340 342 346 347 345 345 348 350 347 344 342 342 344 345 344 344 343 340 334 327 323
218 222 228 233 246 255 257 264 278 287 292 299 300 295 315 321 330 327 322 322 329 336 338 335 338 343 342 341 342 342 344 344 344 343 342 343 343 341 340 338 336 333 334 331
217 227 233 235 240 248 254 255 264 272 273 284 289 295 310 319 311 318 321 322 330 331 329 332 334 338 336 334 335 336 338 338 338 339 338 339 340 338 338 337 335 333 333 332
218 225 233 233 240 244 244 254 268 272 276 284 295 292 302 310 307 322 326 324 324 320 320 324 330 331 331 331 332 333 335 334 334 333 333 334 334 336 337 337 333 331 329 328
226 229 234 236 240 246 252 269 276 278 280 281 287 287 289 305 311 316 315 312 312 313 316 320 325 329 333 334 332 334 333 333 334 334 334 334 333 334 334 335 334 330 329 329
234 239 243 247 242 247 251 257 268 277 284 282 283 288 292 300 307 310 305 305 307 310 311 317 323 325 331 333 331 331 331 333 334 334 334 335 334 333 333 332 331 330 328 329
229 241 244 249 245 242 247 252 266 277 286 288 285 288 296 299 307 310 308 305 308 310 310 315 319 321 324 327 329 330 330 331 333 334 333 333 333 331 330 330 330 329 328 329
224 232 234 246 243 243 242 247 258 263 277 281 284 285 291 296 300 300 298 303 306 308 308 307 310 314 319 322 324 326 328 328 329 330 332 331 331 332 329 329 329 327 327 328
228 232 230 238 246 245 246 247 254 263 270 282 289 288 288 292 296 292 291 297 298 305 308 307 310 311 314 316 316 319 322 324 325 328 330 329 329 329 329 327 328 327 326 326
229 229 232 235 243 248 242 244 250 264 272 276 283 286 286 289 291 293 292 292 297 300 304 308 308 308 311 312 313 316 318 319 320 322 325 326 327 326 325 324 324 323 323 323
228 232 232 232 239 245 248 241 242 252 264 272 276 284 285 285 289 295 296 294 295 295 298 301 301 302 306 308 310 314 314 314 317 317 319 322 323 323 322 321 322 320 321 321
229 231 232 234 240 247 249 249 246 250 258 267 272 279 285 282 282 285 288 292 289 291 295 298 298 298 301 303 308 311 311 310 313 316 318 319 319 320 320 319 319 318 319 319
231 236 240 239 237 242 251 253 252 253 253 260 266 275 285 283 279 284 290 289 288 291 297 295 294 297 298 300 303 305 307 308 311 314 317 318 318 318 318 317 317 317 317 318
234 236 238 241 242 241 244 248 250 254 257 262 267 270 273 274 278 281 283 286 290 290 291 290 291 292 296 298 299 299 301 304 308 312 315 315 316 315 314 315 314 315 317 318
236 238 238 239 244 249 248 251 253 252 254 259 263 267 267 274 279 280 281 284 284 287 285 286 288 290 293 295 296 294 296 300 305 309 311 313 313 313 313 312 312 313 315 316
240 241 243 242 243 247 249 252 251 252 251 252 255 259 262 269 274 275 279 283 282 285 287 286 289 290 293 291 295 292 295 299 303 306 309 310 310 309 310 309 308 308 310 311
240 244 243 242 245 250 250 251 251 249 249 249 253 256 258 265 272 274 275 277 281 284 286 287 289 291 291 290 294 294 296 296 299 301 304 307 306 306 307 307 307 307 308 308
239 244 244 242 246 250 251 248 246 245 251 253 256 257 259 265 269 275 277 278 280 281 284 285 287 287 288 290 292 294 294 296 298 300 301 303 304 304 304 305 305 305 305 306
239 241 242 242 245 249 250 249 249 246 248 254 258 260 261 266 270 274 277 279 279 280 281 284 285 285 287 289 291 292 293 295 296 298 299 300 303 303 303 304 304 305 304 304
237 239 242 243 243 244 245 246 247 250 253 256 260 262 265 268 271 273 275 277 278 279 281 281 283 285 286 287 289 291 292 293 294 296 297 298 300 300 301 302 302 302 304 302
237 238 241 244 244 243 241 242 246 251 254 256 260 263 266 270 272 273 275 276 276 277 277 280 282 284 285 286 287 290 292 292 293 294 295 296 297 298 298 298 299 300 301 302
238 238 239 241 244 246 246 247 249 251 253 257 259 262 266 270 272 272 273 273 275 276 277 279 282 283 284 284 286 288 290 291 292 293 295 295 297 298 297 297 297 298 299 301
237 241 243 243 245 247 249 251 252 254 256 258 260 262 265 270 270 270 271 271 272 275 277 278 281 283 284 285 286 288 289 291 292 293 295 296 296 296 296 297 298 298 298 298
239 240 241 244 247 249 251 253 255 255 256 258 260 263 265 268 267 269 271 271 272 274 276 278 280 282 283 285 285 286 287 290 291 292 294 295 295 295 296 297 299 299 298 298
Height
5913 5915 5916 5916 5917 5919 5920 5921 5920 5920 5919 5918 5917 5915 5914 5912 5911 5909 5908 5906 5904 5903 5902 5900 5899 5898 5897 5896 5894 5893 5892 5891 5889 5888 5887 5886 5884 5883 5881 5880 5878 5877 5876 5874
5913 5914 5916 5917 5918 5920 5921 5920 5920 5919 5919 5918 5916 5915 5913 5911 5910 5909 5907 5906 5904 5903 5901 5900 5899 5898 5897 5895 5894 5893 5892 5890 5889 5888 5886 5885 5884 5882 5881 5879 5877 5875 5874 5872
5912 5914 5915 5917 5919 5920 5920 5919 5920 5919 5918 5917 5916 5914 5912 5911 5909 5907 5906 5905 5903 5902 5901 5899 5898 5897 5896 5895 5894 5893 5891 5890 5889 5887 5886 5884 5883 5881 5880 5878 5876 5874 5873 5871
5910 5912 5914 5916 5918 5918 5919 5919 5919 5918 5917 5916 5915 5912 5910 5908 5907 5906 5905 5904 5902 5901 5900 5899 5897 5896 5895 5894 5893 5892 5891 5889 5888 5887 5885 5884 5882 5880 5879 5877 5875 5873 5871 5869
5909 5911 5913 5915 5916 5917 5917 5917 5917 5916 5914 5913 5913 5911 5910 5908 5906 5905 5904 5903 5901 5901 5899 5898 5896 5895 5894 5893 5892 5891 5890 5889 5887 5886 5884 5883 5881 5879 5877 5875 5874 5872 5870 5868
5906 5909 5911 5912 5913 5915 5915 5915 5914 5913 5912 5912 5913 5911 5909 5908 5905 5904 5903 5901 5900 5900 5899 5897 5896 5895 5893 5892 5891 5890 5889 5888 5886 5885 5883 5881 5880 5878 5876 5874 5872 5870 5868 5866
5904 5906 5908 5909 5911 5912 5913 5914 5913 5911 5910 5911 5911 5909 5908 5907 5905 5904 5902 5900 5899 5898 5898 5896 5895 5893 5892 5891 5890 5889 5888 5886 5885 5883 5882 5880 5878 5876 5874 5872 5870 5868 5867 5864
5903 5904 5906 5907 5909 5910 5911 5912 5912 5911 5909 5908 5908 5907 5904 5904 5904 5903 5901 5899 5898 5897 5896 5895 5894 5892 5891 5890 5888 5887 5886 5885 5883 5882 5880 5878 5876 5874 5872 5870 5868 5866 5864 5862
5900 5903 5905 5906 5906 5908 5908 5908 5909 5909 5908 5907 5905 5904 5903 5901 5901 5901 5899 5898 5897 5895 5894 5893 5892 5891 5890 5888 5887 5886 5885 5883 5882 5880 5878 5876 5874 5872 5870 5868 5866 5864 5862 5860
5897 5899 5902 5902 5903 5905 5906 5907 5907 5908 5907 5905 5904 5902 5900 5898 5898 5897 5896 5895 5894 5893 5892 5891 5890 5889 5888 5887 5885 5884 5883 5882 5880 5878 5876 5874 5872 5870 5868 5866 5864 5862 5860 5858
5894 5896 5898 5900 5900 5902 5904 5905 5904 5905 5904 5903 5902 5902 5899 5897 5897 5895 5893 5892 5892 5891 5890 5889 5887 5887 5886 5885 5884 5882 5881 5880 5878 5876 5874 5872 5870 5868 5866 5864 5862 5860 5858 5856
5889 5891 5893 5896 5898 5899 5899 5901 5903 5904 5902 5901 5899 5900 5896 5895 5893 5892 5890 5889 5889 5889 5888 5887 5886 5885 5884 5883 5882 5880 5879 5878 5876 5874 5872 5870 5868 5866 5864 5861 5859 5857 5855 5853
5885 5887 5889 5891 5895 5895 5895 5896 5898 5900 5900 5898 5897 5897 5893 5892 5890 5889 5888 5886 5886 5886 5886 5885 5884 5882 5881 5880 5879 5878 5876 5875 5873 5872 5870 5867 5865 5863 5861 5858 5856 5854 5852 5850
5879 5882 5884 5887 5888 5890 5891 5892 5893 5895 5896 5895 5894 5893 5891 5889 5887 5886 5885 5885 5884 5883 5883 5882 5881 5880 5879 5878 5877 5875 5874 5872 5870 5868 5866 5865 5862 5860 5858 5855 5853 5851 5849 5846
5874 5876 5877 5880 5882 5885 5886 5888 5889 5890 5891 5891 5890 5890 5887 5885 5883 5881 5881 5881 5881 5879 5879 5878 5878 5877 5876 5875 5874 5872 5871 5869 5867 5865 5863 5861 5859 5857 5854 5852 5850 5847 5845 5843
5867 5870 5872 5874 5877 5879 5881 5882 5884 5885 5886 5887 5886 5886 5883 5880 5879 5878 5878 5876 5876 5876 5875 5875 5874 5873 5872 5871 5870 5868 5867 5866 5864 5862 5860 5858 5856 5853 5851 5849 5846 5844 5841 5838
5862 5864 5866 5869 5872 5873 5875 5877 5879 5880 5881 5882 5881 5881 5879 5876 5875 5874 5874 5873 5873 5873 5871 5870 5869 5869 5868 5867 5865 5864 5863 5862 5860 5858 5856 5854 5851 5849 5847 5844 5842 5840 5837 5835
5856 5858 5861 5864 5867 5867 5872 5873 5873 5874 5874 5875 5874 5872 5871 5870 5870 5870 5870 5869 5869 5868 5867 5866 5865 5863 5862 5861 5860 5859 5858 5856 5855 5853 5851 5849 5847 5845 5842 5840 5838 5835 5832 5830
5850 5852 5854 5857 5859 5861 5865 5866 5867 5868 5867 5867 5867 5866 5865 5866 5866 5865 5865 5865 5864 5863 5862 5861 5860 5859 5858 5856 5855 5854 5853 5851 5849 5847 5846 5844 5842 5840 5837 5835 5832 5830 5827 5825
5844 5846 5848 5850 5852 5855 5858 5858 5858 5861 5860 5860 5860 5860 5860 5860 5860 5859 5859 5859 5859 5858 5857 5856 5855 5854 5852 5851 5849 5848 5847 5845 5844 5842 5841 5838 5836 5834 5832 5830 5827 5825 5822 5819
5838 5839 5841 5843 5845 5849 5849 5850 5852 5854 5853 5852 5853 5854 5854 5854 5855 5854 5853 5853 5853 5852 5851 5851 5850 5849 5848 5846 5845 5843 5841 5840 5838 5836 5835 5832 5830 5828 5826 5824 5821 5818 5816 5813
5831 5833 5834 5836 5839 5843 5841 5842 5844 5845 5846 5846 5847 5848 5848 5847 5848 5847 5847 5847 5847 5846 5845 5844 5844 5843 5842 5841 5839 5838 5836 5834 5832 5830 5828 5826 5824 5822 5819 5817 5815 5812 5809 5806
5823 5825 5827 5829 5832 5831 5833 5834 5836 5837 5838 5839 5840 5840 5841 5841 5841 5841 5841 5840 5840 5840 5839 5838 5837 5837 5836 5834 5833 5831 5829 5828 5826 5824 5822 5820 5818 5815 5813 5810 5808 5805 5802 5800
5815 5817 5819 5821 5822 5823 5824 5825 5827 5829 5830 5831 5832 5833 5833 5833 5834 5834 5834 5833 5833 5832 5832 5831 5831 5830 5829 5827 5826 5824 5823 5821 5819 5817 5815 5813 5811 5809 5806 5803 5800 5798 5795 5792
5806 5808 5811 5813 5814 5815 5816 5817 5819 5821 5822 5823 5824 5825 5826 5826 5826 5826 5826 5826 5825 5825 5825 5825 5824 5823 5822 5820 5819 5818 5816 5814 5812 5810 5808 5806 5804 5802 5799 5796 5793 5790 5788 5785
5799 5801 5803 5804 5805 5806 5808 5809 5811 5812 5813 5815 5816 5817 5817 5818 5818 5818 5818 5818 5818 5818 5817 5817 5816 5815 5814 5813 5812 5810 5809 5807 5805 5803 5801 5799 5797 5794 5792 5789 5786 5783 5781 5778